STARLINK-37461, 69173

Orbit data source: Space-Track

STARLINK-37461, 69173 is a payload satellite owned by SpaceX/Seattle (US) in LEO that was launched on Thu, 21 May 2026 UTC via an FALCON 9 launch vehicle from the Air Force Eastern Test Range (AFETR). Payload-class satellites include a variety of spacecraft equipped with specific instruments for various scientific and technological missions. These include communications satellites like Starlink; space stations such as the ISS; scientific satellites like the Hubble; Earth observation satellites from companies like Planet Labs, Umbra, and HawkEye 360; GPS; miniature CubeSats for education and research; and military/defense satellites.

Loading next visibility...
Identifier
69173, 2026-111AB
Orbit
LEO
Country
Flag of USUS
Related business
Manufacturer
SpaceX/Seattle
Mission
Operational spacecraft
Bus & Motor
STARLINK V2MO, Unknown motor
Mass
575 kg wet, ~530 kg dry
Launch date (UTC)
2026-05-21 (1 month ago)
Launch vehicle
FALCON 9
Launch site
Air Force Eastern Test Range (AFETR)
Object type
Payload
Rocket body
Debris
Shape & HBR
Unknown shape, 14.5 m
Radar Cross Section
Large (>1 m²)

Expand to show TLE details & history
Last TLE update: 15 hours ago

TLE from 15 hours ago
0 STARLINK-37461
1 69173U 26111AB  26171.20167610  .00061071  00000-0  10960-2 0  9990
2 69173  53.1591 139.0056 0001645 103.1587 256.9606 15.49348241  4703
Epoch: 2026-06-20T04:50Z
TLE epoch observation values (Epoch: 2026-06-20T04:50:24.815Z)
Latitude
0.00003°
Longitude
157.98253°
Altitude
419.791 km
Speed
7.66 km/s
True Right ascension
09h 16m 01s
True Declination
0° 00' 00"
Sunlit
Object was in daylight at epoch
Visualization orbit readout
Latitude
Unknown
Longitude
Unknown
Altitude
Unknown
Speed
Unknown
Apparent Right ascension
Unknown
Apparent Declination
Unknown
Sunlit
N/A
Visualization observer readout
Local Sidereal Time
07:13:13
Azimuth
Unknown
Elevation
Unknown
Doppler factor
Unknown
Orbital elements
Apogee altitude
420.008 km
Perigee altitude
417.772 km
Semi-major axis
6,797.027 km
Eccentricity
0.00016
Inclination
53.1591°
RAAN
139.0056°
Arg. of periapsis
103.1587°
True anomaly
256.94224°
Mean anomaly
256.9606°
Eccentric anomaly
256.95142°
Mean motion
3.87315 °/min
Orbital period
92.95 mins
BSTAR
0.001096
Loading maneuver chart data...
Computing Atmospheric mass density...
Loading historical data...
Loading historical data...
Loading historical data...
Loading historical data...
Loading historical data...
Loading historical data...
Loading historical data...

Documentation

Showing up to 5 results
|